Location: Oberwangen
(47.4286°N, 8.9679°E)
Time: 15:22:50
(UTC+00:00)

FALCON 9 DEB - Pass Details

Date: 20 June 2021
Orbit: 358 x 373 km, 53.0° (Epoch: 03 August)

Event Time Altitude Azimuth Distance (km) Brightness Sun altitude
Rises 20:37:27 0° 234° (SW) 2,243 6.8 -9.6°
Reaches altitude 10° 20:39:30 10° 231° (SW) 1,395 5.7 -9.9°
Maximum altitude 20:42:35 68° 149° (SSE) 414 2.8 -10.2°
Drops below altitude 10° 20:45:43 10° 65° (ENE) 1,402 5.6 -10.5°
Sets 20:47:46 0° 63° (ENE) 2,256 6.7 -10.7°
